This demonstration page uses our WeatherBlox Daily Observations layout. Learn more.

Left ArrowRight Arrow

Hourly Observations for May 16, 2017

Temp ( °F °C ) Dew Point ( °F °C ) Humidity (%) Winds ( mph kmh ) Pressure ( in mb ) Visibility ( mi km ) Precip ( " mm )
12:54 am 00:54 Partly Cloudy with Light Rain 72 22.2 57 13.9 59 59 W 14 22 29.69 1005 10 16.0934 0 0.0254
1:54 am 01:54 Mostly Cloudy 71 21.7 58 14.4 63 63 NW 7 11 29.71 1006 10 16.0934 0 0.0254
2:54 am 02:54 Mostly Clear 68 20 58 14.4 70 70 SE 5 7 29.66 1004 10 16.0934 0 0
3:54 am 03:54 Clear 66 18.9 59 15 78 78 SE 7 11 29.62 1003 10 16.0934 0 0
4:54 am 04:54 Clear 66 18.9 59 15 78 78 N 9 15 29.6 1003 10 16.0934 0 0
5:54 am 05:54 Mostly Clear with Thunderstorms 66 18.9 59 15 78 78 SSW 6 9 29.58 1002 10 16.0934 0 0
6:35 am 06:35 Mostly Cloudy with Nearby Thunderstorms 66 18.9 63 17.2 90 90 SSE 7 11 29.59 1002 10 16.0934 0.04 1.016
6:49 am 06:49 Mostly Cloudy 66 19 64 18 94 94 SSE 8 13 29.56 1001 10 16.0934 0.04 1.016
6:54 am 06:54 Partly Cloudy 67 19.4 64 17.8 91 91 SSE 8 13 29.56 1001 9 14.48406 0.04 1.016
7:54 am 07:54 Sunny 71 21.7 63 17.2 76 76 S 13 20 29.55 1001 10 16.0934 0 0
8:54 am 08:54 Sunny 74 23.3 63 17.2 69 69 SSW 22 35 29.57 1001 10 16.0934 0 0
9:54 am 09:54 Sunny 78 25.6 63 17.2 60 60 SSW 20 31 29.55 1001 10 16.0934 0 0
10:54 am 10:54 Mostly Sunny 79 26.1 63 17.2 58 58 S 22 35 29.55 1001 10 16.0934 0 0
11:54 am 11:54 Sunny 82 27.8 63 17.2 53 53 SSW 20 31 29.52 1000 10 16.0934 0 0
12:54 pm 12:54 Sunny 85 29.4 63 17.2 48 48 S 18 30 29.52 1000 10 16.0934 0 0
1:54 pm 13:54 Sunny 88 31.1 63 17.2 43 43 SSW 14 22 29.5 999 10 16.0934 0 0
2:54 pm 14:54 Mostly Sunny 90 32.2 62 16.7 39 39 SSW 18 30 29.5 999 10 16.0934 0 0
3:54 pm 15:54 Partly Cloudy 90 32.2 65 18.3 44 44 S 18 30 29.47 998 10 16.0934 0 0
4:54 pm 16:54 Sunny 86 30 65 18.3 49 49 S 21 33 29.43 997 10 16.0934 0 0
5:23 pm 17:23 Sunny with Nearby Thunderstorms 86 30 62 16.7 45 45 S 16 26 29.44 997 10 16.0934 0 0
5:36 pm 17:36 Sunny with Thunderstorms 86 30 62 16.7 45 45 SSW 14 22 29.44 997 10 16.0934 0 0
5:45 pm 17:45 Partly Cloudy with Thunderstorms 84 28.9 61 16.1 46 46 WNW 33 54 29.47 998 10 16.0934 0 0
5:54 pm 17:54 Windy with Storms Likely 68 20 55 12.8 63 63 NW 20 31 29.54 1000 8 12.87472 0 0.0254
6:01 pm 18:01 Windy with Storms Likely 67 19.4 56 13.3 68 68 NNW 23 37 29.47 998 10 16.0934 0 0.0254
6:48 pm 18:48 Cloudy with Heavy Thunderstorms 64 18 61 16 88 88 ENE 6 9 29.5 999 1.75 2.816345 0.17 4.318
6:54 pm 18:54 Cloudy with Heavy Thunderstorms 63 17.2 61 16.1 93 93 NE 12 19 29.48 998 1 1.60934 0.43 10.922
6:58 pm 18:58 Cloudy with Heavy Thunderstorms 62 16.7 61 16.1 96 96 ENE 6 9 29.53 1000 4 6.43736 0.07 1.778
7:10 pm 19:10 Cloudy with Heavy Thunderstorms 63 17.2 61 16.1 93 93 WNW 16 26 29.56 1001 1 1.60934 0.25 6.35
7:34 pm 19:34 Cloudy with Light Thunderstorms 61 16.1 58 14.4 90 90 NNE 8 13 29.5 999 6 9.65604 0.69 17.526
7:54 pm 19:54 Mostly Cloudy with Light Thunderstorms 63 17.2 59 15 87 87 ENE 8 13 29.47 998 6 9.65604 0.69 17.526
8:48 pm 20:48 Cloudy with Heavy Thunderstorms 63 17 61 16 94 94 W 9 15 29.59 1002 1.75 2.816345 0.09 2.286
8:54 pm 20:54 Cloudy with Heavy Thunderstorms 63 17.2 60 15.6 90 90 WSW 8 13 29.57 1001 1.5 2.41401 0.18 4.572
8:58 pm 20:58 Cloudy with Heavy Thunderstorms 63 17.2 61 16.1 93 93 SSW 12 19 29.59 1002 2 3.21868 0.03 0.762
9:07 pm 21:07 Cloudy with Heavy Thunderstorms 64 17.8 62 16.7 93 93 S 8 13 29.59 1002 3 4.82802 0.1 2.54
9:31 pm 21:31 Cloudy with Nearby Thunderstorms 65 18.3 62 16.7 90 90 Calm 29.56 1001 3 4.82802 0.17 4.318
9:54 pm 21:54 Cloudy with Nearby Thunderstorms 64 17.8 62 16.7 93 93 ENE 7 11 29.56 1001 10 16.0934 0.2 5.08
10:49 pm 22:49 Cloudy with Light Rain 63 17 63 17 100 100 SE 8 13 29.56 1001 6 9.65604 0.04 1.016
10:54 pm 22:54 Cloudy with Light Rain 63 17.2 62 16.7 97 97 ESE 13 20 29.54 1000 5 8.0467 0.05 1.27
11:03 pm 23:03 Cloudy with Light Thunderstorms 64 17.8 61 16.1 90 90 VRB 7 11 29.56 1001 5 8.0467 0.03 0.762
11:18 pm 23:18 Cloudy with Nearby Thunderstorms 64 17.8 61 16.1 90 90 SE 12 19 29.56 1001 6 9.65604 0.07 1.778
11:39 pm 23:39 Cloudy with Rain 63 17.2 62 16.7 97 97 ESE 21 33 29.53 1000 7 11.26538 0.09 2.286
11:54 pm 23:54 Mostly Cloudy with Light Rain 63 17.2 62 16.7 97 97 E 14 22 29.41 996 10 16.0934 0.1 2.54

Powered by AerisWeather